Torna al catalogo

TJS-17

AttivoMilitareGEO
NORAD 63524·PAYLOAD·🇨🇳 China

Lanciato Apr 10, 2025 da Xichang Satellite Launch Center

Loading…

TLE

AggiornatoSource: Space-Track

Epoca: Sep 13, 2026, 17:48 UTC

1 63524U 25073A   26256.74211248 -.00000079  00000-0  00000+0 0  9993
2 63524   1.2867  81.7514 0001145 174.7946 167.8599  1.00271399  5171

Traccia TJS-17 in tempo reale con AllMySat

Download on the App Store